Regional Weather Roundup
Issued by NWS

Home | Current Version | Previous Version | Text Only | Print | Product List | Glossary On
Versions: 1 2 3 4 5 6 7 8 9 10 11 12 13 14 15 16 17 18 19 20 21 22 23 24 25 26 27 28 29 30 31 32 33 34 35 36 37 38 39 40 41 42 43 44 45 46 47 48 49 50
000
ASUS45 KREV 220610
RWRNV
NEVADA REGIONAL WEATHER ROUNDUP
NATIONAL WEATHER SERVICE RENO NV
1100 PM PDT SUN SEP 21 2014

NOTE: "FAIR" INDICATES FEW OR NO CLOUDS BELOW 12,000 FEET WITH NO
SIGNIFICANT WEATHER AND/OR OBSTRUCTIONS TO VISIBILITY.

NVZ001-003-004-220700-
WESTERN NEVADA

CITY           SKY/WX    TMP DP  RH WIND       PRES   REMARKS
RENO           PTCLDY    62  45  53 CALM      30.12S
6HR MIN TEMP:  61; 6HR MAX TEMP:  73;

CARSON CITY    FAIR      59  39  47 SW3       30.15R
MINDEN         FAIR      54  37  54 NE3       30.16S
SLIDE MTN        N/A     45  37  76 NW9         N/A
FALLON         PTCLDY    62  47  57 SE8       30.09R
6HR MIN TEMP:  62; 6HR MAX TEMP:  74; 6HR PCP: TRACE;

LOVELOCK       CLOUDY    65  48  54 SW6       30.08S
6HR MIN TEMP:  65; 6HR MAX TEMP:  76;

HAWTHORNE      CLEAR     63  46  55 CALM      30.12R
$$

NVZ002-CAZ072-073-220700-
NORTHERN AND CENTRAL SIERRA

CITY           SKY/WX    TMP DP  RH WIND       PRES   REMARKS
S. LAKE TAHOE  CLEAR     48  38  68 S3        30.23S
6HR MIN TEMP:  48; 6HR MAX TEMP:  63;

TRUCKEE        CLEAR     41  36  81 SE5       30.23R
SQUAW VLY 8000 NOT AVBL
BLUE CANYON    CLEAR     61  40  45 CALM      30.20R HAZE
MAMMOTH LAKES  FAIR      52  41  66 S3        30.27S
BRIDGEPORT     FAIR      51  33  50 CALM      30.24R
$$

NVZ030-031-036-220700-
NORTHERN NEVADA

CITY           SKY/WX    TMP DP  RH WIND       PRES   REMARKS
ELKO           MOCLDY    56  46  69 N5        30.15F
6HR MIN TEMP:  54; 6HR MAX TEMP:  71;

WINNEMUCCA     MOCLDY    59  50  72 S14       30.09F
6HR MIN TEMP:  51; 6HR MAX TEMP:  66; 6HR PCP: TRACE;

WENDOVER       MOCLDY    59  52  77 NE5       30.15R
$$

NVZ035-037-220700-
CENTRAL NEVADA

CITY           SKY/WX    TMP DP  RH WIND       PRES   REMARKS
ELY            PTCLDY    48  46  93 S3        30.25S
6HR MIN TEMP:  48; 6HR MAX TEMP:  60; 6HR PCP:  0.12;

EUREKA           N/A     52  48  86 SW5       30.20S
6HR MIN TEMP:  51; 6HR MAX TEMP:  62;

$$

NVZ013-014-220700-
SOUTH CENTRAL NEVADA

CITY           SKY/WX    TMP DP  RH WIND       PRES   REMARKS
TONOPAH        CLOUDY    61  48  62 N8        30.19R
6HR MIN TEMP:  61; 6HR MAX TEMP:  75; 6HR PCP: TRACE;

$$

NVZ017-020-022-220700-
SOUTHERN NEVADA

CITY           SKY/WX    TMP DP  RH WIND       PRES   REMARKS
LAS VEGAS      CLEAR     84  44  24 S8        29.92R
6HR MIN TEMP:  84; 6HR MAX TEMP:  93;

N. LAS VEGAS   CLEAR     82  46  28 NW6       29.94R
6HR MIN TEMP:  81; 6HR MAX TEMP:  92;

NELLIS AFB     CLEAR     82  51  34 NE8       29.93R
6HR MIN TEMP:  82; 6HR MAX TEMP:  92;

HENDERSON      CLEAR     80  44  27 S9        29.98R
6HR MIN TEMP:  81; 6HR MAX TEMP:  92;

MERCURY        CLEAR     71  48  43 NE5       30.02R
6HR MIN TEMP:  70; 6HR MAX TEMP:  87;

$$



USA.gov is the U.S. government's official web portal to all federal, state and local government web resources and services.